Location: Mentone
(34.5413°N, 85.5351°W)
Time: 01:13:23
(UTC-05:00)

Cosmos 2026 Rocket - Visible Passes

Search period start: 29 May 2015 00:00
Search period end: 08 June 2015 00:00
Orbit: 939 x 1002 km, 82.9° (Epoch: 27 May)

Date Brightness Start Highest point End Pass type
(mag) Time Alt. Az. Time Alt. Az. Time Alt. Az.
29 May 6.8 03:45:33 10° NE 03:48:30 14° ENE 03:51:52 10° E visible
30 May 6.2 04:07:54 10° NNE 04:12:59 26° ENE 04:18:17 10° SE visible
31 May 5.1 04:31:13 10° N 04:37:16 48° E 04:43:23 10° SSE visible
01 Jun 7.0 03:14:12 10° ENE 03:14:59 10° ENE 03:16:19 10° ENE visible
01 Jun 4.2 04:55:00 10° N 05:01:20 87° E 05:07:43 10° S visible
02 Jun 6.5 03:35:08 10° NNE 03:39:35 21° ENE 03:44:19 10° ESE visible
03 Jun 5.5 03:58:10 10° NNE 04:03:57 38° ENE 04:09:50 10° SE visible
04 Jun 4.4 04:21:47 10° N 04:28:06 69° E 04:34:27 10° SSE visible
05 Jun 6.6 03:02:34 10° NE 03:06:09 16° ENE 03:10:05 10° ESE visible
05 Jun 4.1 04:45:48 10° NNW 04:52:05 66° W 04:58:23 10° S visible
06 Jun 5.8 03:25:13 10° NNE 03:30:36 30° ENE 03:36:08 10° SE visible
07 Jun 4.8 03:48:39 10° N 03:54:50 54° E 04:01:04 10° SSE visible
